Weather History for Hinckley, MN

Change the Weather History Date:

Thursday, August 22, 2013

  Actual Average (KJMR) Record (KJMR)
Temperature  
Mean Temperature 66 °F -  
Max Temperature 82 °F 77 °F 95 °F (1947)
Min Temperature 51 °F 51 °F 30 °F (1987)
Cooling Degree Days 2    
Growing Degree Days 16 (Base 50)    
Moisture  
Dew Point 49 °F    
Average Humidity 55    
Maximum Humidity 94    
Minimum Humidity 25    
Precipitation  
Precipitation 0.00 in - - ()
Sea Level Pressure  
Sea Level Pressure 30.12 in    
Wind  
Wind Speed 5 mph (NNE)    
Max Wind Speed 10 mph    
Max Gust Speed -    
Visibility 10 miles    
Events      
Averages and records for this station are not official NWS values.
T = Trace of Precipitation, MM = Missing Value Source: NWS Daily Summary

Daily Weather History Graph

Daily Weather History Graph

Search for Another Location

Airport:

Trip Planner

Search our weather history database for the weather conditions in past years. The results will help you decide how hot, cold, wet, or windy it might be!

Date:

Astronomy

Aug. 22, 2013 Rise Set
Actual Time 6:20 AM CDT 8:07 PM CDT
Civil Twilight 5:48 AM CDT 8:39 PM CDT
Nautical Twilight 5:09 AM CDT 9:18 PM CDT
Astronomical Twilight 4:26 AM CDT 10:00 PM CDT
Moon 8:41 PM CDT (8/22) 8:18 AM CDT (8/22)
Length of Visible Light 14h 51m
Length of Day
13h 47m
Waning Gibbous, 96% of the Moon is Illuminated
Aug 22
Waning Gibbous
Aug 28
Last Quarter
Sep 5
New
Sep 12
First Quarter
Sep 19
Full

Hourly Weather History & Observations

Time (CDT) Temp. Dew Point Humidity Pressure Visibility Wind Dir Wind Speed Gust Speed Precip Events Conditions
12:14 AM 64.4 °F 55.4 °F 73% 30.04 in 10.0 mi North 4.6 mph - N/A   Clear
12:34 AM 60.8 °F 55.4 °F 82% 30.05 in 10.0 mi Calm Calm - N/A   Clear
12:54 AM 60.8 °F 55.4 °F 82% 30.07 in 10.0 mi Calm Calm - N/A   Clear
1:14 AM 59.0 °F 55.4 °F 88% 30.07 in 10.0 mi Calm Calm - N/A   Clear
1:34 AM 60.8 °F 57.2 °F 88% 30.08 in 10.0 mi North 6.9 mph - N/A   Clear
1:54 AM 64.4 °F 55.4 °F 73% 30.07 in 10.0 mi North 9.2 mph - N/A   Scattered Clouds
2:14 AM 64.4 °F 53.6 °F 68% 30.07 in 10.0 mi North 6.9 mph - N/A   Mostly Cloudy
2:34 AM 64.4 °F 53.6 °F 68% 30.08 in 10.0 mi North 4.6 mph - N/A   Mostly Cloudy
2:54 AM 62.6 °F 53.6 °F 72% 30.08 in 10.0 mi North 3.5 mph - N/A   Overcast
3:14 AM 62.6 °F 53.6 °F 72% 30.08 in 10.0 mi North 5.8 mph - N/A   Mostly Cloudy
3:34 AM 62.6 °F 53.6 °F 72% 30.09 in 10.0 mi NNW 4.6 mph - N/A   Scattered Clouds
3:55 AM 64.4 °F 53.6 °F 68% 30.10 in 10.0 mi North 8.1 mph - N/A   Scattered Clouds
4:14 AM 64.4 °F 51.8 °F 64% 30.11 in 10.0 mi North 9.2 mph - N/A   Clear
4:34 AM 64.4 °F 51.8 °F 64% 30.12 in 10.0 mi North 9.2 mph - N/A   Scattered Clouds
4:55 AM 64.4 °F 50.0 °F 59% 30.13 in 10.0 mi North 6.9 mph - N/A   Scattered Clouds
5:14 AM 62.6 °F 50.0 °F 63% 30.13 in 10.0 mi North 6.9 mph - N/A   Clear
5:34 AM 60.8 °F 50.0 °F 68% 30.13 in 10.0 mi NNE 4.6 mph - N/A   Clear
5:55 AM 60.8 °F 50.0 °F 68% 30.13 in 10.0 mi North 5.8 mph - N/A   Clear
6:14 AM 60.8 °F 48.2 °F 63% 30.14 in 10.0 mi North 3.5 mph - N/A   Clear
6:34 AM 59.0 °F 48.2 °F 67% 30.13 in 10.0 mi North 4.6 mph - N/A   Clear
6:54 AM 59.0 °F 48.2 °F 67% 30.13 in 10.0 mi Calm Calm - N/A   Clear
7:14 AM 57.2 °F 48.2 °F 72% 30.13 in 10.0 mi Calm Calm - N/A   Clear
7:35 AM 59.0 °F 51.8 °F 77% 30.14 in 10.0 mi Calm Calm - N/A   Clear
7:54 AM 60.8 °F 50.0 °F 68% 30.14 in 10.0 mi Calm Calm - N/A   Clear
8:14 AM 62.6 °F 50.0 °F 63% 30.14 in 10.0 mi NNE 4.6 mph - N/A   Clear
8:35 AM 64.4 °F 50.0 °F 59% 30.14 in 10.0 mi North 5.8 mph - N/A   Clear
8:54 AM 68.0 °F 50.0 °F 52% 30.14 in 10.0 mi NNE 8.1 mph - N/A   Clear
9:14 AM 69.8 °F 50.0 °F 49% 30.15 in 10.0 mi NNE 9.2 mph - N/A   Clear
9:34 AM 71.6 °F 50.0 °F 46% 30.16 in 10.0 mi NNE 6.9 mph - N/A   Clear
9:54 AM 71.6 °F 50.0 °F 46% 30.16 in 10.0 mi NE 4.6 mph - N/A   Clear
10:14 AM 73.4 °F 50.0 °F 44% 30.16 in 10.0 mi NNE 10.4 mph - N/A   Clear
10:34 AM 73.4 °F 48.2 °F 41% 30.16 in 10.0 mi NNE 10.4 mph - N/A   Clear
10:55 AM 75.2 °F 48.2 °F 38% 30.16 in 10.0 mi NE 8.1 mph - N/A   Clear
11:14 AM 75.2 °F 46.4 °F 36% 30.16 in 10.0 mi NNE 10.4 mph - N/A   Clear
11:34 AM 77.0 °F 44.6 °F 32% 30.16 in 10.0 mi NNE 10.4 mph - N/A   Clear
11:55 AM 77.0 °F 44.6 °F 32% 30.15 in 10.0 mi ENE 6.9 mph - N/A   Clear
12:14 PM 78.8 °F 44.6 °F 30% 30.15 in 10.0 mi ENE 4.6 mph - N/A   Clear
12:34 PM 78.8 °F 46.4 °F 32% 30.14 in 10.0 mi North 6.9 mph - N/A   Clear
12:55 PM 78.8 °F 44.6 °F 30% 30.14 in 10.0 mi North 9.2 mph - N/A   Clear
1:14 PM 78.8 °F 44.6 °F 30% 30.14 in 10.0 mi NNE 5.8 mph - N/A   Clear
1:34 PM 80.6 °F 46.4 °F 30% 30.13 in 10.0 mi North 6.9 mph - N/A   Clear
1:55 PM 80.6 °F 46.4 °F 30% 30.14 in 10.0 mi East 5.8 mph - N/A   Clear
2:14 PM 80.6 °F 44.6 °F 28% 30.13 in 10.0 mi NNE 6.9 mph - N/A   Clear
2:34 PM 80.6 °F 44.6 °F 28% 30.13 in 10.0 mi NNE 5.8 mph - N/A   Clear
2:55 PM 80.6 °F 44.6 °F 28% 30.13 in 10.0 mi ENE 8.1 mph - N/A   Clear
3:14 PM 80.6 °F 42.8 °F 26% 30.13 in 10.0 mi Calm Calm - N/A   Clear
3:34 PM 80.6 °F 44.6 °F 28% 30.13 in 10.0 mi Calm Calm - N/A   Clear
3:55 PM 80.6 °F 42.8 °F 26% 30.12 in 10.0 mi NW 3.5 mph - N/A   Clear
4:14 PM 82.4 °F 44.6 °F 26% 30.12 in 10.0 mi ENE 4.6 mph - N/A   Clear
4:34 PM 82.4 °F 44.6 °F 26% 30.12 in 10.0 mi NNE 8.1 mph - N/A   Clear
4:55 PM 82.4 °F 42.8 °F 25% 30.11 in 10.0 mi NNE 4.6 mph - N/A   Clear
5:14 PM 80.6 °F 42.8 °F 26% 30.11 in 10.0 mi North 6.9 mph - N/A   Clear
5:34 PM 80.6 °F 42.8 °F 26% 30.11 in 10.0 mi NNE 4.6 mph - N/A   Clear
5:55 PM 80.6 °F 42.8 °F 26% 30.11 in 10.0 mi North 5.8 mph - N/A   Clear
6:14 PM 80.6 °F 42.8 °F 26% 30.11 in 10.0 mi North 4.6 mph - N/A   Clear
6:35 PM 80.6 °F 44.6 °F 28% 30.11 in 10.0 mi NNE 4.6 mph - N/A   Clear
6:55 PM 78.8 °F 46.4 °F 32% 30.11 in 10.0 mi NE 4.6 mph - N/A   Clear
7:14 PM 77.0 °F 46.4 °F 34% 30.11 in 10.0 mi NNE 3.5 mph - N/A   Clear
7:35 PM 75.2 °F 50.0 °F 41% 30.11 in 10.0 mi Calm Calm - N/A   Clear
7:55 PM 69.8 °F 51.8 °F 53% 30.11 in 10.0 mi NNE 3.5 mph - N/A   Clear
8:14 PM 64.4 °F 53.6 °F 68% 30.12 in 10.0 mi Calm Calm - N/A   Clear
8:35 PM 62.6 °F 55.4 °F 77% 30.12 in 10.0 mi Calm Calm - N/A   Clear
8:54 PM 60.8 °F 55.4 °F 82% 30.13 in 10.0 mi Calm Calm - N/A   Clear
9:14 PM 59.0 °F 53.6 °F 82% 30.13 in 10.0 mi North 4.6 mph - N/A   Clear
9:35 PM 59.0 °F 51.8 °F 77% 30.14 in 10.0 mi North 3.5 mph - N/A   Clear
9:55 PM 55.4 °F 51.8 °F 88% 30.14 in 10.0 mi North 3.5 mph - N/A   Clear
10:14 PM 57.2 °F 51.8 °F 82% 30.14 in 10.0 mi North 3.5 mph - N/A   Clear
10:35 PM 57.2 °F 50.0 °F 77% 30.15 in 10.0 mi Calm Calm - N/A   Clear
10:55 PM 53.6 °F 50.0 °F 88% 30.15 in 10.0 mi Calm Calm - N/A   Clear
11:15 PM 53.6 °F 50.0 °F 88% 30.15 in 10.0 mi Calm Calm - N/A   Clear
11:35 PM 51.8 °F 50.0 °F 94% 30.15 in 10.0 mi Calm Calm - N/A   Clear
11:54 PM 51.8 °F 50.0 °F 94% 30.15 in 10.0 mi Calm Calm - N/A   Clear